When you browse on this site, cookies collect data to enhance your experience and personalize the content and advertising you see.
Visit our Privacy Policy to learn more. By continuing to use the site, you agree to this use of cookies and data.
  • In Hungary
  • List of Countries
  • For 7 days
  • Water Temperature
  • Satellite Maps
  • Weather Map
  • News
  • Weather Widgets
  • user-avatar
    Login

    Hourly Weather Franceville

    Today, 21 March, Thursday

    Time Temperature Precipitation Wind Pressure Humidity
    00:00 +24°C° 0 mm 0 mps 730 mmHg 85%
    01:00 +23°C° 0 mm 0 mps 729 mmHg 96%
    02:00 +23°C° 0 mm 0 mps 729 mmHg 96%
    03:00 +23°C° 0 mm 0 mps 729 mmHg 96%
    04:00 +23°C° 0 mm 0 mps 729 mmHg 97%
    05:00 +23°C° 0 mm 0 mps 730 mmHg 96%
    06:00 +23°C° 0 mm 0 mps 730 mmHg 95%
    07:00 +25°C° 0 mm 1 mps 730 mmHg 93%
    08:00 +28°C° 0 mm 1 mps 730 mmHg 82%
    09:00 +30°C° 0 mm 1 mps 731 mmHg 71%
    10:00 +33°C° 0 mm 1 mps 731 mmHg 59%
    11:00 +35°C° 0 mm 1 mps 730 mmHg 53%
    12:00 +37°C° 0 mm 1 mps 730 mmHg 46%
    13:00 +39°C° 0 mm 1 mps 729 mmHg 40%
    14:00 +39°C° 0 mm 1 mps 729 mmHg 41%
    15:00 +37°C° 0 mm 1 mps 728 mmHg 43%
    16:00 +37°C° 0 mm 1 mps 728 mmHg 44%
    17:00 +35°C° 0 mm 1 mps 728 mmHg 50%
    18:00 +31°C° 0 mm 0 mps 728 mmHg 56%
    19:00 +29°C° 0 mm 0 mps 728 mmHg 63%
    20:00 +29°C° 1.1 mm 1 mps 728 mmHg 72%
    21:00 +28°C° 1.1 mm 1 mps 729 mmHg 81%
    22:00 +26°C° 1.1 mm 1 mps 730 mmHg 90%
    23:00 +26°C° 0.7 mm 1 mps 729 mmHg 92%

    Tomorrow, 22 March, Friday

    Time Temperature Precipitation Wind Pressure Humidity
    00:00 +26°C° 0.7 mm 1 mps 729 mmHg 94%
    01:00 +23°C° 0.7 mm 0 mps 729 mmHg 96%
    02:00 +23°C° 0 mm 0 mps 729 mmHg 95%
    03:00 +23°C° 0 mm 0 mps 729 mmHg 95%
    04:00 +23°C° 0 mm 0 mps 729 mmHg 95%
    05:00 +23°C° 0 mm 0 mps 729 mmHg 94%
    06:00 +23°C° 0 mm 0 mps 729 mmHg 94%
    07:00 +24°C° 0 mm 0 mps 730 mmHg 93%
    08:00 +25°C° 1.2 mm 0 mps 730 mmHg 88%
    09:00 +27°C° 1.2 mm 0 mps 731 mmHg 84%
    10:00 +30°C° 1.2 mm 1 mps 731 mmHg 79%
    11:00 +31°C° 1.9 mm 1 mps 731 mmHg 75%
    12:00 +33°C° 1.9 mm 1 mps 730 mmHg 70%
    13:00 +34°C° 1.9 mm 1 mps 730 mmHg 65%
    14:00 +32°C° 1 mm 1 mps 730 mmHg 73%
    15:00 +30°C° 1 mm 1 mps 729 mmHg 82%
    16:00 +26°C° 1 mm 0 mps 729 mmHg 90%
    17:00 +27°C° 0 mm 1 mps 729 mmHg 92%
    18:00 +27°C° 0 mm 1 mps 729 mmHg 93%
    19:00 +26°C° 0 mm 1 mps 729 mmHg 95%
    20:00 +26°C° 0 mm 1 mps 729 mmHg 95%
    21:00 +23°C° 0 mm 0 mps 730 mmHg 96%
    22:00 +23°C° 0 mm 0 mps 730 mmHg 97%
    23:00 +23°C° 0 mm 0 mps 730 mmHg 97%

    Day after tomorrow, 23 March, Saturday

    Time Temperature Precipitation Wind Pressure Humidity
    00:00 +22°C° 0 mm 0 mps 730 mmHg 97%
    01:00 +22°C° 0 mm 0 mps 730 mmHg 97%
    02:00 +22°C° 0 mm 0 mps 730 mmHg 97%
    03:00 +22°C° 0 mm 0 mps 730 mmHg 98%
    04:00 +23°C° 0 mm 1 mps 730 mmHg 98%
    05:00 +24°C° 0 mm 1 mps 730 mmHg 97%
    06:00 +22°C° 0 mm 0 mps 730 mmHg 96%
    07:00 +22°C° 0 mm 0 mps 731 mmHg 95%
    08:00 +25°C° 0 mm 0 mps 732 mmHg 83%
    09:00 +28°C° 0 mm 0 mps 732 mmHg 70%
    10:00 +31°C° 0 mm 0 mps 733 mmHg 58%
    11:00 +32°C° 0.1 mm 0 mps 732 mmHg 54%
    12:00 +35°C° 0.1 mm 1 mps 731 mmHg 50%
    13:00 +36°C° 0.1 mm 1 mps 730 mmHg 46%
    14:00 +36°C° 0 mm 1 mps 730 mmHg 46%
    15:00 +36°C° 0 mm 1 mps 729 mmHg 45%
    16:00 +37°C° 0 mm 2 mps 729 mmHg 45%
    17:00 +33°C° 0.3 mm 1 mps 729 mmHg 57%
    18:00 +30°C° 0.3 mm 1 mps 729 mmHg 69%
    19:00 +27°C° 0.3 mm 1 mps 729 mmHg 81%
    20:00 +27°C° 0.1 mm 1 mps 729 mmHg 84%
    21:00 +26°C° 0.1 mm 1 mps 730 mmHg 87%
    22:00 +25°C° 0.1 mm 1 mps 730 mmHg 90%
    23:00 +25°C° 0 mm 1 mps 730 mmHg 91%

    24 March, Sunday

    Time Temperature Precipitation Wind Pressure Humidity
    00:00 +25°C° 0 mm 1 mps 730 mmHg 91%
    01:00 +22°C° 0 mm 0 mps 730 mmHg 92%
    02:00 +22°C° 0 mm 0 mps 730 mmHg 93%
    03:00 +22°C° 0 mm 0 mps 730 mmHg 95%
    04:00 +22°C° 0 mm 0 mps 730 mmHg 96%
    05:00 +22°C° 0 mm 0 mps 730 mmHg 95%
    06:00 +22°C° 0 mm 0 mps 731 mmHg 94%
    07:00 +22°C° 0 mm 0 mps 731 mmHg 93%
    08:00 +25°C° 0 mm 0 mps 732 mmHg 81%
    09:00 +29°C° 0 mm 1 mps 733 mmHg 70%
    10:00 +32°C° 0 mm 1 mps 733 mmHg 59%
    11:00 +33°C° 0 mm 1 mps 732 mmHg 54%
    12:00 +35°C° 0 mm 1 mps 732 mmHg 49%
    13:00 +36°C° 0 mm 1 mps 731 mmHg 43%
    14:00 +34°C° 1.3 mm 1 mps 730 mmHg 58%
    15:00 +31°C° 1.3 mm 1 mps 729 mmHg 73%
    16:00 +28°C° 1.3 mm 1 mps 728 mmHg 89%
    17:00 +28°C° 0.5 mm 1 mps 729 mmHg 90%
    18:00 +27°C° 0.5 mm 1 mps 729 mmHg 92%
    19:00 +26°C° 0.5 mm 1 mps 730 mmHg 94%
    20:00 +26°C° 0 mm 1 mps 730 mmHg 94%
    21:00 +25°C° 0 mm 1 mps 731 mmHg 94%
    22:00 +25°C° 0 mm 1 mps 731 mmHg 94%
    23:00 +25°C° 0 mm 1 mps 731 mmHg 95%

    25 March, Monday

    Time Temperature Precipitation Wind Pressure Humidity
    00:00 +24°C° 0 mm 1 mps 730 mmHg 96%
    01:00 +22°C° 0 mm 0 mps 730 mmHg 97%
    02:00 +22°C° 0 mm 0 mps 730 mmHg 97%
    03:00 +21°C° 0 mm 0 mps 730 mmHg 97%
    04:00 +21°C° 0 mm 0 mps 730 mmHg 97%
    05:00 +22°C° 0 mm 0 mps 730 mmHg 96%
    06:00 +22°C° 0 mm 0 mps 731 mmHg 95%
    07:00 +22°C° 0 mm 0 mps 732 mmHg 94%
    08:00 +25°C° 0 mm 0 mps 732 mmHg 82%
    09:00 +29°C° 0 mm 1 mps 732 mmHg 70%
    10:00 +32°C° 0 mm 1 mps 733 mmHg 59%
    11:00 +33°C° 0 mm 1 mps 732 mmHg 52%
    12:00 +35°C° 0 mm 1 mps 731 mmHg 45%
    13:00 +37°C° 0 mm 2 mps 730 mmHg 39%
    14:00 +36°C° 0 mm 1 mps 730 mmHg 38%
    15:00 +36°C° 0 mm 1 mps 729 mmHg 37%
    16:00 +36°C° 0 mm 1 mps 729 mmHg 36%
    17:00 +34°C° 0 mm 1 mps 729 mmHg 43%
    18:00 +30°C° 0 mm 0 mps 729 mmHg 50%
    19:00 +27°C° 0 mm 0 mps 729 mmHg 58%
    20:00 +27°C° 0 mm 0 mps 730 mmHg 61%
    21:00 +28°C° 0 mm 1 mps 730 mmHg 65%
    22:00 +27°C° 0 mm 1 mps 731 mmHg 69%
    23:00 +26°C° 0 mm 1 mps 730 mmHg 74%

    26 March, Tuesday

    Time Temperature Precipitation Wind Pressure Humidity
    00:00 +26°C° 0 mm 1 mps 730 mmHg 79%
    01:00 +25°C° 0 mm 1 mps 730 mmHg 84%
    02:00 +25°C° 0 mm 1 mps 730 mmHg 86%
    03:00 +23°C° 0 mm 0 mps 729 mmHg 87%
    04:00 +22°C° 0 mm 0 mps 729 mmHg 88%
    05:00 +23°C° 0 mm 0 mps 730 mmHg 87%
    06:00 +25°C° 0 mm 1 mps 730 mmHg 85%
    07:00 +25°C° 0 mm 1 mps 731 mmHg 84%
    08:00 +28°C° 0 mm 1 mps 731 mmHg 73%
    09:00 +31°C° 0 mm 1 mps 732 mmHg 63%
    10:00 +34°C° 0 mm 1 mps 732 mmHg 52%
    11:00 +36°C° 0 mm 1 mps 731 mmHg 47%
    12:00 +36°C° 0 mm 0 mps 731 mmHg 41%
    13:00 +38°C° 0 mm 0 mps 730 mmHg 36%
    14:00 +37°C° 0 mm 0 mps 730 mmHg 35%
    15:00 +37°C° 0 mm 0 mps 729 mmHg 35%
    16:00 +36°C° 0 mm 0 mps 729 mmHg 35%
    17:00 +34°C° 0 mm 0 mps 729 mmHg 43%
    18:00 +31°C° 0 mm 0 mps 729 mmHg 51%
    19:00 +29°C° 0 mm 0 mps 730 mmHg 59%
    20:00 +28°C° 0.2 mm 0 mps 730 mmHg 65%
    21:00 +29°C° 0.2 mm 1 mps 730 mmHg 70%
    22:00 +29°C° 0.2 mm 1 mps 730 mmHg 76%
    23:00 +28°C° 0.6 mm 1 mps 730 mmHg 80%
    Show more